DW1902 Weather Reports


time (UTC)temp
C
wind
direction
speed
KPH
gust
KPH
rain 1hr
cm
rain 24hr
cm
rain mn
cm
humidity
%
barometer
mb
20260507201605 13 0 0.0 6.4 0.00 1.73 1.73 96 999.8
20260507201105 12 0 1.6 6.4 0.00 1.73 1.73 96 999.8
20260507200605 12 0 0.0 6.4 0.00 1.73 1.73 96 1000.0
20260507200105 12 0 0.0 6.4 0.00 1.73 1.73 96 999.9
20260507195603 12 0 0.0 6.4 0.00 1.73 1.73 96 999.9
20260507195224 13 0 0.0 6.4 0.00 1.73 1.73 96 999.9
20260507195203 12 0 1.6 6.4 0.00 1.73 1.73 96 999.9
20260507194629 12 0 1.6 6.4 0.00 1.73 1.73 96 999.9
20260507193602 13 0 0.0 8.0 0.00 1.73 1.73 96 999.9
20260507193342 13 0 0.0 6.4 0.00 1.73 1.73 96 999.9
20260507193337 13 0 0.0 8.0 0.03 1.73 1.73 96 999.9
20260507193258 13 0 0.0 8.0 0.00 1.73 1.73 96 999.7
20260507192724 13 0 0.0 6.4 0.00 1.73 1.73 96 999.7
20260507191628 13 0 0.0 3.2 0.00 1.73 1.73 96 1000.0
20260507190845 13 0 1.6 8.0 0.03 1.73 1.73 96 1000.0
20260507185602 13 0 0.0 6.4 0.03 1.73 1.73 96 1000.0
20260507185102 13 0 0.0 6.4 0.03 1.73 1.73 96 1000.1
20260507184559 13 0 1.6 6.4 0.03 1.73 1.73 96 1000.2
20260507184058 12 0 0.0 0.0 0.03 1.73 1.73 96 1000.1
20260507183550 12 0 0.0 0.0 0.03 1.73 1.73 96 1000.1
20260507183052 12 0 0.0 6.4 0.03 1.73 1.73 96 1000.2
20260507182551 12 0 0.0 6.4 0.03 1.73 1.73 96 1000.1
20260507182049 12 0 0.0 3.2 0.03 1.73 1.73 96 1000.1
20260507181834 12 0 0.0 4.8 0.03 1.73 1.73 96 1000.3
20260507181050 11 0 0.0 4.8 0.00 1.70 1.70 96 1000.4
20260507180547 11 0 0.0 8.0 0.00 1.70 1.70 96 1000.4
20260507180055 11 0 3.2 9.7 0.00 1.70 1.70 96 1000.6
20260507175549 11 0 3.2 9.7 0.00 1.70 1.70 96 1000.7
20260507175044 11 0 3.2 16.1 0.03 1.70 1.70 96 1000.9
20260507174544 10 0 4.8 16.1 0.05 1.70 1.70 96 1000.8
20260507174045 10 0 4.8 14.5 0.05 1.70 1.70 96 1000.7
20260507173828 10 0 0.0 9.7 0.05 1.70 1.70 96 1000.3
20260507173323 10 0 0.0 17.7 0.05 1.70 1.70 96 1000.4
20260507172538 10 0 4.8 17.7 0.05 1.70 1.70 96 1000.9
20260507172039 10 0 6.4 17.7 0.05 1.70 1.70 96 1000.4
20260507171537 10 0 3.2 6.4 0.10 1.70 1.70 96 1000.2
20260507171320 10 0 0.0 6.4 0.13 1.70 1.70 96 999.9
20260507170822 10 0 0.0 6.4 0.15 1.70 1.70 96 999.8
20260507170048 10 0 0.0 6.4 0.20 1.70 1.70 96 1000.3
20260507165537 10 0 0.0 6.4 0.20 1.70 1.70 96 1000.9
20260507165033 10 0 0.0 6.4 0.18 1.68 1.68 96 1001.0
20260507164814 10 0 0.0 6.4 0.15 1.65 1.65 96 1000.8
20260507164038 10 0 1.6 4.8 0.18 1.65 1.65 96 1000.9
20260507163532 10 0 0.0 4.8 0.15 1.65 1.65 96 1000.8
20260507163034 10 0 0.0 0.0 0.15 1.65 1.65 96 1000.8
20260507162533 10 0 0.0 0.0 0.18 1.65 1.65 96 1000.5
20260507162035 10 0 0.0 0.0 0.18 1.63 1.65 96 1000.5
20260507161531 10 0 0.0 0.0 0.15 1.60 1.60 96 1000.6
20260507161033 10 0 0.0 9.7 0.18 1.57 1.57 96 1001.2
20260507160531 10 0 0.0 9.7 0.15 1.55 1.55 96 1001.7
20260507160052 10 0 0.0 4.8 0.15 1.50 1.50 96 1002.0
20260507155531 10 0 0.0 1.6 0.20 1.50 1.50 96 1001.6
20260507155031 10 0 0.0 8.0 0.23 1.50 1.50 96 1001.4
20260507154531 9 0 1.6 9.7 0.28 1.50 1.50 96 1001.3
20260507154035 9 0 3.2 9.7 0.36 1.47 1.47 96 1001.5
20260507153531 9 0 1.6 9.7 0.48 1.47 1.47 96 1001.6
20260507153033 9 0 0.0 9.7 0.53 1.47 1.47 96 1001.7
20260507152529 9 0 0.0 4.8 0.56 1.45 1.45 96 1001.6
20260507152032 9 0 1.6 8.0 0.58 1.45 1.45 96 1001.4
20260507151531 9 0 1.6 8.0 0.61 1.45 1.45 96 1001.9
20260507151037 10 0 0.0 8.0 0.61 1.40 1.40 96 1002.1
20260507150528 10 0 1.6 8.0 0.64 1.37 1.37 96 1002.2
20260507150048 10 0 1.6 4.8 0.61 1.35 1.35 96 1002.2
20260507145528 10 0 0.0 4.8 0.58 1.30 1.30 96 1002.0
20260507145032 10 0 1.6 4.8 0.56 1.27 1.27 96 1002.2
20260507144526 10 0 0.0 1.6 0.51 1.22 1.22 96 1002.6
20260507144028 10 0 0.0 0.0 0.43 1.09 1.12 96 1002.4
20260507143526 10 0 0.0 0.0 0.30 0.99 0.99 96 1002.1
20260507143033 10 0 0.0 0.0 0.23 0.94 0.94 96 1002.4
20260507142526 10 0 0.0 0.0 0.20 0.89 0.89 96 1002.6
20260507142029 10 0 0.0 8.0 0.18 0.86 0.89 96 1002.5
20260507141525 10 0 3.2 8.0 0.15 0.84 0.84 96 1003.2
20260507141028 10 0 0.0 4.8 0.08 0.76 0.79 96 1003.2
20260507140525 10 0 0.0 4.8 0.05 0.74 0.74 96 1002.6
20260507140029 10 0 0.0 6.4 0.03 0.71 0.71 96 1002.2
20260507135525 10 0 0.0 9.7 0.03 0.71 0.71 96 1002.5
20260507135032 10 0 1.6 9.7 0.00 0.71 0.71 96 1002.7
20260507134524 10 0 1.6 8.0 0.00 0.71 0.71 96 1002.9
20260507134030 10 0 3.2 9.7 0.00 0.71 0.71 96 1003.0
20260507133524 10 0 0.0 11.3 0.00 0.71 0.71 96 1002.9
20260507133034 10 0 1.6 11.3 0.00 0.71 0.71 96 1002.9
20260507132524 10 0 0.0 14.5 0.00 0.71 0.71 96 1002.7
20260507132031 10 0 4.8 14.5 0.00 0.71 0.71 96 1002.8
20260507131524 10 0 1.6 19.3 0.00 0.71 0.71 96 1002.9
20260507131319 10 0 3.2 19.3 0.00 0.71 0.71 96 1002.9
20260507130809 10 0 0.0 19.3 0.00 0.71 0.71 96 1002.9
20260507130028 10 0 3.2 22.5 0.00 0.71 0.71 96 1003.2
20260507125523 10 0 6.4 22.5 0.00 0.71 0.71 95 1003.0
20260507125033 10 0 4.8 20.9 0.00 0.71 0.71 95 1002.9
20260507124810 10 0 6.4 20.9 0.00 0.71 0.71 95 1003.1
20260507124026 10 0 1.6 19.3 0.00 0.71 0.71 95 1003.2
20260507123526 10 0 6.4 19.3 0.00 0.71 0.71 95 1003.1
20260507123032 10 0 6.4 17.7 0.00 0.71 0.71 95 1003.3
20260507122522 10 0 4.8 20.9 0.00 0.71 0.71 95 1003.3
20260507122315 10 0 8.0 20.9 0.00 0.71 0.71 95 1003.2
20260507121808 10 0 6.4 17.7 0.00 0.71 0.71 96 1003.4
20260507121028 10 0 6.4 17.7 0.00 0.71 0.71 95 1003.5
20260507120950 10 0 4.8 22.5 0.03 0.71 0.71 95 1003.8
20260507120632 10 0 6.4 20.9 0.00 0.71 0.71 96 1003.6
20260507115032 10 0 9.7 22.5 0.03 0.71 0.71 95 1003.9
20260507114521 10 0 3.2 17.7 0.03 0.71 0.71 95 1003.9
20260507114320 10 0 3.2 19.3 0.03 0.71 0.71 95 1003.9
20260507113809 10 0 4.8 20.9 0.03 0.71 0.71 95 1003.9
20260507113030 10 0 8.0 20.9 0.03 0.71 0.71 95 1003.6
20260507112521 10 0 9.7 17.7 0.03 0.71 0.71 95 1003.8
20260507112026 10 0 3.2 17.7 0.03 0.71 0.71 95 1004.0
20260507111521 10 0 6.4 24.1 0.03 0.71 0.71 95 1004.2
20260507111023 10 0 11.3 24.1 0.03 0.71 0.71 95 1004.4
20260507110521 10 0 8.0 20.9 0.03 0.71 0.71 95 1004.3
20260507110029 10 0 6.4 17.7 0.00 0.69 0.69 95 1004.2
20260507105521 10 0 6.4 27.4 0.00 0.69 0.69 95 1004.3
20260507105028 10 0 11.3 27.4 0.00 0.69 0.69 95 1004.4
20260507104520 10 0 8.0 22.5 0.03 0.69 0.69 95 1004.5
20260507104307 10 0 6.4 24.1 0.03 0.69 0.69 95 1004.6
20260507103519 10 0 6.4 24.1 0.03 0.69 0.69 95 1004.4
20260507103020 10 0 11.3 25.7 0.03 0.69 0.69 95 1004.6
20260507102519 10 0 8.0 25.7 0.03 0.69 0.69 95 1004.7
20260507102019 10 0 6.4 19.3 0.03 0.69 0.69 95 1004.7
20260507102011 10 0 3.2 24.1 0.05 0.69 0.69 95 1004.7
20260507101649 10 0 6.4 22.5 0.03 0.69 0.69 95 1004.5
20260507101121 10 0 4.8 24.1 0.05 0.69 0.69 95 1004.5
20260507100549 10 0 8.0 24.1 0.05 0.69 0.69 95 1004.5
20260507095518 10 0 6.4 25.7 0.08 0.69 0.69 95 1004.7
20260507095019 10 0 9.7 25.7 0.10 0.69 0.69 95 1004.7
20260507094518 10 0 9.7 25.7 0.10 0.66 0.66 95 1004.6
20260507094016 10 0 6.4 43.5 0.10 0.66 0.66 95 1004.6
20260507093802 10 0 12.9 43.5 0.13 0.66 0.66 95 1004.7
20260507093304 10 0 9.7 38.6 0.15 0.66 0.66 95 1004.7
20260507092516 10 0 16.1 38.6 0.15 0.66 0.66 95 1004.6
20260507092006 10 0 9.7 35.4 0.15 0.66 0.66 95 1004.6
20260507091504 10 0 14.5 35.4 0.15 0.66 0.66 95 1004.7
20260507091008 10 0 9.7 35.4 0.15 0.64 0.64 95 1004.8
20260507090503 10 0 11.3 35.4 0.15 0.64 0.64 94 1004.9
20260507090006 10 0 11.3 35.4 0.15 0.61 0.61 94 1004.8
20260507085502 10 0 14.5 35.4 0.13 0.61 0.61 94 1004.8
20260507085005 10 0 9.7 30.6 0.13 0.58 0.58 94 1005.0
20260507084503 10 0 8.0 30.6 0.13 0.56 0.56 94 1005.1
20260507084004 10 0 6.4 29.0 0.15 0.56 0.56 94 1005.1
20260507083502 10 0 11.3 29.0 0.15 0.53 0.53 94 1005.1
20260507083005 10 0 11.3 32.2 0.18 0.51 0.51 94 1005.5
20260507082503 10 0 9.7 41.8 0.18 0.51 0.51 94 1005.3
20260507082006 10 0 12.9 41.8 0.20 0.51 0.51 94 1005.4
20260507081503 10 0 9.7 38.6 0.20 0.51 0.51 94 1005.5
20260507081003 10 0 14.5 38.6 0.23 0.51 0.51 94 1005.6
20260507080503 10 0 11.3 30.6 0.25 0.48 0.51 94 1005.6
20260507080005 9 0 11.3 29.0 0.25 0.48 0.48 94 1005.7
20260507075503 9 0 8.0 29.0 0.25 0.46 0.48 94 1005.7
20260507075004 9 0 9.7 27.4 0.23 0.46 0.46 93 1005.6
20260507074750 9 0 12.9 33.8 0.25 0.43 0.43 93 1005.6
20260507074003 9 0 9.7 33.8 0.23 0.43 0.43 93 1005.7
20260507073502 9 0 9.7 30.6 0.25 0.41 0.41 93 1005.9
20260507073003 10 0 9.7 30.6 0.23 0.33 0.33 93 1005.9
20260507072502 10 0 11.3 30.6 0.23 0.33 0.33 93 1005.9
20260507072005 10 0 9.7 41.8 0.20 0.30 0.30 93 1006.1
20260507071502 10 0 14.5 41.8 0.23 0.30 0.30 93 1006.4
20260507071002 10 0 14.5 33.8 0.25 0.28 0.28 92 1006.5
20260507070504 10 0 9.7 25.7 0.23 0.23 0.23 92 1006.5
20260507070009 10 0 8.0 29.0 0.20 0.23 0.23 92 1006.6
20260507065503 10 0 9.7 29.0 0.23 0.23 0.23 92 1006.7
20260507065004 10 0 8.0 32.2 0.23 0.23 0.23 92 1006.6
20260507064502 10 0 14.5 32.2 0.18 0.18 0.18 92 1006.7
20260507064003 10 0 4.8 16.1 0.18 0.15 0.18 92 1006.8
20260507063503 10 0 6.4 16.1 0.15 0.13 0.15 91 1007.0
20260507063004 10 0 3.2 19.3 0.10 0.10 0.10 91 1007.1
20260507062503 10 0 4.8 19.3 0.10 0.10 0.10 91 1007.1
20260507062003 10 0 3.2 30.6 0.10 0.10 0.10 90 1007.3
20260507061503 10 0 9.7 32.2 0.05 0.05 0.05 90 1007.4
20260507061003 10 0 6.4 32.2 0.03 0.03 0.03 89 1007.5
20260507060503 10 0 8.0 32.2 0.03 0.03 0.03 89 1007.6
20260507060006 10 0 8.0 24.1 0.03 0.00 0.03 88 1007.5
20260507055503 11 0 4.8 24.1 0.00 0.00 0.00 88 1007.6
20260507055004 10 0 8.0 20.9 0.00 0.00 0.00 88 1007.9
20260507054502 10 0 6.4 20.9 0.00 0.00 0.00 88 1007.9
20260507054004 10 0 4.8 17.7 0.00 0.00 0.00 87 1008.1
20260507053502 10 0 4.8 16.1 0.00 0.00 0.00 88 1008.2
20260507053003 10 0 4.8 22.5 0.00 0.00 0.00 87 1008.0
20260507052502 10 0 9.7 22.5 0.00 0.00 0.00 87 1008.2
20260507052003 10 0 3.2 38.6 0.00 0.00 0.00 87 1008.4
20260507051501 10 0 6.4 38.6 0.00 0.00 0.00 87 1008.7
20260507051002 10 0 6.4 20.9 0.00 0.00 0.00 86 1008.7
20260507050451 10 0 6.4 22.5 0.00 0.00 0.00 86 1008.8
20260507045950 10 0 11.3 24.1 0.00 0.00 0.00 86 1008.4
20260507045444 11 0 8.0 24.1 0.00 0.00 0.00 86 1008.6
20260507044944 11 0 8.0 30.6 0.00 0.00 0.00 86 1008.6
20260507044444 11 0 6.4 30.6 0.00 0.00 0.00 86 1008.8
20260507043943 11 0 4.8 22.5 0.00 0.00 0.00 86 1009.2
20260507043443 11 0 9.7 24.1 0.00 0.00 0.00 86 1009.4
20260507042943 11 0 9.7 24.1 0.00 0.00 0.00 86 1009.5
20260507042440 11 0 8.0 27.4 0.00 0.00 0.00 86 1009.7
20260507041940 11 0 11.3 27.4 0.00 0.00 0.00 86 1009.8
20260507041439 11 0 3.2 27.4 0.00 0.00 0.00 86 1010.0
20260507040940 11 0 8.0 29.0 0.00 0.00 0.00 86 1010.1
20260507040440 11 0 9.7 29.0 0.00 0.00 0.00 86 1010.1
20260507035941 11 0 9.7 24.1 0.00 0.00 0.00 86 1010.2
20260507035439 11 0 1.6 20.9 0.00 0.00 0.00 85 1010.4
20260507034933 11 0 1.6 20.9 0.00 0.00 0.00 86 1010.3
20260507034435 11 0 6.4 24.1 0.00 0.00 0.00 86 1010.5
20260507033932 11 0 6.4 25.7 0.00 0.00 0.00 86 1010.6
20260507033430 11 0 12.9 25.7 0.00 0.00 0.00 86 1011.0
20260507032932 11 0 4.8 17.7 0.00 0.00 0.00 86 1010.7
20260507032431 11 0 8.0 24.1 0.00 0.00 0.00 86 1010.7
20260507031930 11 0 8.0 24.1 0.00 0.00 0.00 86 1010.6
20260507031431 11 0 6.4 24.1 0.00 0.00 0.00 86 1010.6
20260507030931 11 0 6.4 22.5 0.00 0.00 0.00 86 1010.6
20260507030431 11 0 4.8 19.3 0.00 0.00 0.00 86 1010.8
20260507025931 11 0 3.2 25.7 0.00 0.00 0.00 85 1010.9
20260507025430 11 0 3.2 25.7 0.00 0.00 0.00 85 1011.0
20260507024931 11 0 6.4 19.3 0.00 0.00 0.00 85 1011.1
20260507024432 11 0 1.6 19.3 0.00 0.00 0.00 85 1011.4
20260507023931 11 0 8.0 17.7 0.00 0.00 0.00 85 1011.3
20260507023430 11 0 6.4 16.1 0.00 0.00 0.00 85 1011.5
20260507022932 11 0 4.8 16.1 0.00 0.00 0.00 85 1011.7
20260507022431 11 0 1.6 19.3 0.00 0.00 0.00 85 1011.8
20260507021932 11 0 8.0 19.3 0.00 0.00 0.00 85 1011.7
20260507021431 11 0 4.8 20.9 0.00 0.00 0.00 85 1011.7
20260507020930 11 0 8.0 20.9 0.00 0.00 0.00 85 1012.0
20260507020431 11 0 3.2 22.5 0.00 0.00 0.00 85 1011.9
20260507015931 11 0 9.7 22.5 0.00 0.00 0.00 85 1011.8
20260507015431 11 0 4.8 17.7 0.00 0.00 0.00 85 1011.9
20260507014930 11 0 8.0 17.7 0.00 0.00 0.00 84 1012.1
20260507014431 11 0 4.8 16.1 0.00 0.00 0.00 84 1012.1
20260507013931 11 0 6.4 16.1 0.00 0.00 0.00 84 1012.2
20260507013431 11 0 4.8 16.1 0.00 0.00 0.00 84 1012.2
20260507012931 12 0 3.2 17.7 0.00 0.00 0.00 83 1012.5
20260507012431 12 0 3.2 17.7 0.00 0.00 0.00 83 1012.5
20260507011931 12 0 6.4 19.3 0.00 0.00 0.00 83 1012.7
20260507011716 12 0 8.0 19.3 0.00 0.00 0.00 83 1012.7
20260507011221 12 0 6.4 19.3 0.00 0.00 0.00 83 1012.9
20260507010918 12 0 8.0 25.7 0.00 0.00 0.00 82 1013.0
20260507010601 12 0 6.4 24.1 0.00 0.00 0.00 82 1012.9
20260507010029 12 0 4.8 29.0 0.00 0.00 0.00 82 1012.9
20260507005459 12 0 6.4 29.0 0.00 0.00 0.00 82 1013.1
20260507004431 12 0 11.3 25.7 0.00 0.00 0.00 82 1012.9
20260507003927 12 0 6.4 24.1 0.00 0.00 0.00 82 1013.1
20260507003826 13 0 6.4 25.7 0.00 0.00 0.00 82 1013.2
20260507003821 13 0 6.4 25.7 0.00 0.00 0.00 82 1013.0
20260507003241 13 0 8.0 25.7 0.00 0.00 0.00 82 1013.1
20260507002209 13 0 9.7 27.4 0.00 0.00 0.00 82 1013.2
20260507001421 13 0 4.8 27.4 0.00 0.00 0.00 82 1013.2
20260507001208 13 0 6.4 19.3 0.00 0.00 0.00 82 1013.2
20260507000420 13 0 4.8 19.3 0.00 0.00 0.00 82 1013.3
20260506235918 13 0 3.2 20.9 0.00 0.00 0.00 82 1013.2
20260506235417 13 0 4.8 22.5 0.00 0.00 0.00 81 1013.1
20260506234917 13 0 6.4 25.7 0.00 0.00 0.00 81 1013.2
20260506234411 13 0 4.8 25.7 0.00 0.00 0.00 81 1013.2
20260506233913 13 0 6.4 30.6 0.00 0.00 0.00 81 1013.2
20260506233411 13 0 12.9 30.6 0.00 0.00 0.00 80 1013.2
20260506232910 13 0 8.0 30.6 0.00 0.00 0.00 80 1013.1
20260506232409 13 0 4.8 27.4 0.00 0.00 0.00 80 1013.3
20260506231910 13 0 8.0 24.1 0.00 0.00 0.00 80 1013.1
20260506231410 13 0 4.8 22.5 0.00 0.00 0.00 80 1013.1
20260506230910 13 0 4.8 27.4 0.00 0.00 0.00 79 1013.1
20260506230408 13 0 9.7 27.4 0.00 0.00 0.00 79 1013.1
20260506225906 13 0 11.3 24.1 0.00 0.00 0.00 78 1013.0
20260506225406 14 0 6.4 22.5 0.00 0.00 0.00 78 1013.0
20260506224906 14 0 6.4 29.0 0.00 0.00 0.00 77 1013.0
20260506224405 14 0 11.3 29.0 0.00 0.00 0.00 77 1012.9
20260506223905 14 0 4.8 27.4 0.00 0.00 0.00 76 1013.0
20260506223405 15 0 9.7 32.2 0.00 0.00 0.00 76 1013.2
20260506222904 15 0 9.7 32.2 0.00 0.00 0.00 75 1013.3
20260506222405 15 0 14.5 27.4 0.00 0.00 0.00 74 1013.2
20260506221904 15 0 9.7 25.7 0.00 0.00 0.00 75 1013.4
20260506221403 15 0 8.0 25.7 0.00 0.00 0.00 75 1013.5
20260506220904 16 0 3.2 27.4 0.00 0.00 0.00 75 1013.5
20260506220404 16 0 4.8 27.4 0.00 0.00 0.00 75 1013.4
20260506215903 16 0 4.8 22.5 0.00 0.00 0.00 75 1013.4
20260506215404 16 0 6.4 22.5 0.00 0.00 0.00 75 1013.4
20260506214902 16 0 4.8 20.9 0.00 0.00 0.00 75 1013.5
20260506214403 16 0 8.0 27.4 0.00 0.00 0.00 75 1013.5
20260506213902 16 0 11.3 27.4 0.00 0.00 0.00 74 1013.6
20260506213649 16 0 9.7 35.4 0.00 0.00 0.00 74 1013.6
20260506212902 16 0 17.7 35.4 0.00 0.00 0.00 74 1013.7
20260506212644 16 0 12.9 30.6 0.00 0.00 0.00 74 1013.7
20260506211902 16 0 6.4 25.7 0.00 0.00 0.00 74 1013.5
20260506211402 16 0 9.7 25.7 0.00 0.00 0.00 73 1013.6
20260506210901 16 0 8.0 30.6 0.00 0.00 0.00 72 1013.6
20260506210646 16 0 14.5 45.1 0.00 0.00 0.00 72 1013.5
20260506205901 16 0 20.9 45.1 0.00 0.00 0.00 72 1013.6
20260506205647 16 0 6.4 29.0 0.00 0.00 0.00 73 1013.5
20260506204901 16 0 11.3 22.5 0.00 0.00 0.00 74 1013.6
20260506204647 16 0 9.7 35.4 0.00 0.00 0.00 73 1013.6
20260506203902 16 0 9.7 35.4 0.00 0.00 0.00 72 1013.6
20260506203645 16 0 11.3 25.7 0.00 0.00 0.00 70 1013.6
20260506202900 16 0 8.0 30.6 0.00 0.00 0.00 70 1013.4
20260506202401 17 0 8.0 38.6 0.00 0.00 0.00 70 1013.3
20260506202019 18 0 6.4 33.8 0.00 0.00 0.00 70 1013.1
20260506201954 17 0 11.3 38.6 0.00 0.00 0.00 69 1013.3